#timestamp,LO_Frequency,Hit,StdDev 
1599973215.0,286047000.8,N
1599973215.9,286047000.8,N
1599973235.8,286047000.5,N
1599973255.6,286047000.3,N
1599973275.4,286047001.0,N
1599973295.3,286046998.6,N
1599973315.1,286046999.2,N
1599973316.0,286046999.2,N
1599973335.8,286046999.6,N
1599973355.7,286046998.7,N
1599973375.5,286046999.3,N
1599973395.3,286046998.7,N
1599973415.2,286046999.2,N
1599973435.0,286046999.1,N
1599973435.9,286046999.1,N
1599973455.8,286046999.2,N
1599973475.6,286046999.3,N
1599973495.4,286046999.0,N
1599973515.3,286046996.9,N
1599973535.1,286046998.9,N
1599973555.8,286046998.2,N
1599973575.7,286046998.7,N
1599973595.5,286046998.2,N
1599973615.4,286047000.8,N
1599973635.2,286047000.6,N
1599973655.0,286047000.9,N
1599973655.9,286047000.9,N
1599973675.8,286047000.3,N
1599973695.6,286046999.8,N
1599973715.4,286047000.3,N
1599973735.3,286047002.4,N
1599973755.1,286047000.4,N
1599973775.9,286047000.6,N
1599973795.7,286046999.7,N
1599973815.5,286046999.9,N
1599973835.4,286047002.8,N
1599973855.2,286047000.6,N
1599973875.0,286047000.8,N
1599973875.9,286047000.8,N
1599973895.8,286047001.2,N
1599973915.6,286046998.6,N
1599973935.5,286046998.5,N
1599973955.3,286047000.7,N
1599973975.1,286047000.2,N
1599973995.9,286047000.6,N
1599974015.7,286047000.0,N
1599974035.5,286046999.8,N
1599974055.4,286046998.9,N
1599974075.2,286046999.1,N
1599974095.1,286046999.1,N
1599974096.0,286046999.1,N
1599974115.8,286046999.1,N
1599974135.6,286047001.2,N
1599974155.5,286047001.0,N
1599974175.3,286047000.9,N
1599974195.1,286047001.0,N
1599974215.9,286046998.4,N
1599974235.7,286047000.8,N
1599974255.6,286046996.5,Y
1599974275.4,286046997.0,P
1599974295.2,286046999.6,N
1599974315.1,286046996.9,N
1599974316.0,286046996.9,N
1599974335.8,286046997.6,N
1599974355.7,286046998.0,N
1599974375.5,286046994.9,Y
1599974395.3,286046998.9,P
1599974415.2,286046998.9,N
1599974435.0,286046998.3,P
1599974435.9,286046998.3,Y
1599974455.7,286047000.6,P
1599974475.6,286047000.3,N
1599974495.4,286047002.8,P
1599974515.3,286047000.5,N
1599974535.1,286047000.8,N
1599974536.0,286047000.8,N
1599974555.8,286047000.9,N
1599974575.7,286046999.9,N
1599974595.5,286047000.1,N
1599974615.3,286046999.8,N
1599974635.2,286046999.8,N
1599974655.0,286047000.5,N
1599974655.9,286047000.5,N
1599974675.8,286047000.1,N
1599974695.6,286047000.3,N
1599974715.4,286047000.7,N
1599974735.3,286046999.9,N
1599974755.1,286047002.3,N
1599974775.9,286046998.1,N
1599974795.7,286046998.2,N
1599974815.5,286047000.5,N
1599974835.4,286046998.8,N
1599974855.2,286046998.2,N
1599974875.0,286047001.1,N
1599974875.9,286047001.1,N
1599974895.8,286046998.9,N
1599974915.6,286047001.1,N
1599974935.5,286047000.9,N
1599974955.3,286047000.6,N
1599974975.1,286046999.3,N
1599974995.9,286046999.1,N
1599975015.7,286046998.4,N
1599975035.5,286047000.4,N
1599975055.4,286046999.3,N
1599975075.2,286046998.2,N
1599975095.1,286046998.2,N
1599975096.0,286046998.2,N
1599975115.8,286047000.5,N
1599975135.6,286047002.8,N
1599975155.5,286047001.5,N
1599975175.3,286047004.0,Y
1599975195.1,286047004.2,P
1599975215.9,286047003.8,N
1599975235.7,286047001.7,N
1599975255.6,286047001.3,N
1599975275.4,286047001.3,N
1599975295.2,286047001.8,N
1599975315.1,286047002.5,N
1599975316.0,286047002.5,N
1599975335.8,286047001.6,N
1599975355.6,286047002.1,N
1599975375.5,286047004.0,Y
1599975395.3,286047002.4,P
1599975415.2,286047002.8,P
1599975435.9,286047000.3,N
1599975455.7,286047001.0,N
1599975475.6,286047002.0,N
1599975495.4,286047002.7,Y
1599975515.3,286046999.4,P
1599975535.1,286046996.6,N
1599975536.0,286046996.6,N
1599975555.8,286046996.5,N
1599975575.7,286046999.6,N
1599975595.5,286046996.6,N
1599975615.3,286046998.6,N
1599975635.2,286046998.2,N
1599975655.0,286046999.4,N
1599975655.9,286046999.4,N
1599975675.8,286046998.8,N
1599975695.6,286046999.0,N
1599975715.4,286046998.2,N
1599975735.3,286046998.8,N
1599975755.1,286046998.7,N
1599975775.9,286046998.1,N
1599975795.7,286046999.3,N
1599975815.5,286046998.7,N
1599975835.4,286046998.6,N
1599975855.2,286046998.4,N
1599975875.0,286046999.2,N
1599975875.9,286046999.2,N
1599975895.8,286047001.1,N
1599975915.6,286047000.8,N
1599975935.5,286046998.1,N
1599975955.3,286046998.6,N
1599975975.1,286046998.3,N
1599975995.9,286046998.9,N
1599976015.7,286047001.2,N
1599976035.5,286046998.3,N
1599976055.4,286046999.5,N
1599976075.2,286046999.2,N
1599976095.1,286046997.0,N
1599976096.0,286046997.0,N
1599976115.8,286046999.1,N
1599976135.6,286046999.4,N
1599976155.5,286046996.7,Y
1599976175.3,286046999.0,P
1599976195.1,286047000.6,P
1599976215.9,286046999.0,N
1599976235.7,286046997.1,Y
1599976255.6,286046997.2,P
1599976275.4,286046999.6,N
1599976295.2,286046999.3,N
1599976315.1,286046998.4,N
1599976316.0,286046998.4,N
1599976335.8,286046998.2,N
1599976355.6,286047000.7,N
1599976375.5,286046999.1,N
1599976395.3,286046996.9,Y
1599976415.2,286046998.2,P
1599976435.9,286046999.0,N
1599976455.7,286046999.0,N
1599976475.6,286046998.2,Y
1599976495.4,286046999.9,P
1599976515.3,286046999.7,N
1599976535.1,286047002.0,P
1599976536.0,286047002.0,N
1599976555.8,286047001.4,N
1599976575.7,286047003.8,Y
1599976595.5,286047001.6,P
1599976615.3,286047004.3,P
1599976635.2,286047001.5,N
1599976655.0,286047001.3,N
1599976655.9,286047001.3,N
1599976675.8,286047003.1,N
1599976695.6,286047002.3,N
1599976715.4,286047000.2,N
1599976735.3,286047001.9,N
1599976755.1,286047002.3,N
1599976775.8,286047002.2,N
1599976795.7,286047001.7,N
